Gambell, AK

3:43 AM AKST on November 21, 2017 (GMT -0900)
Gambell

Weather History for PAGM - January, 2014

Change the Weather History Date:

Friday, January 3, 2014

  Actual Average Record
Temperature  
Mean Temperature 16 °F -  
Max Temperature 17 °F 9 °F 35 °F (2015)
Min Temperature 14 °F 3 °F -16 °F (2003)
Degree Days  
Heating Degree Days 50    
Moisture  
Dew Point 13 °F    
Average Humidity 89    
Maximum Humidity 93    
Minimum Humidity 79    
Precipitation  
Precipitation 2.32 in - - ()
Sea Level Pressure  
Sea Level Pressure 29.86 in    
Wind  
Wind Speed 20 mph (NE)    
Max Wind Speed 26 mph    
Max Gust Speed 30 mph    
Visibility 9 miles    
Events      
Averages and records for this station are not official NWS values.
T = Trace of Precipitation, MM = Missing Value Source: NWS Daily Summary

Daily Weather History Graph

Daily Weather History Graph

Search for Another Location

Airport or City:

Trip Planner

Search our weather history database for the weather conditions in past years. The results will help you decide how hot, cold, wet, or windy it might be!

Date:

Astronomy

Jan. 03, 2014 Rise Set
Actual Time 12:10 PM AKST 4:53 PM AKST
Civil Twilight 10:57 AM AKST 6:05 PM AKST
Nautical Twilight 9:51 AM AKST 7:12 PM AKST
Astronomical Twilight 8:53 AM AKST 8:10 PM AKST
Moon 12:21 PM AKST (1/3) 9:51 PM AKST (1/3)
Length of Visible Light 7h 08m
Length of Day
4h 43m
Waxing Crescent, 9% of the Moon is Illuminated
Jan 3
Waxing Crescent
Jan 7
First Quarter
Jan 15
Full
Jan 23
Last Quarter
Jan 30
New

Hourly Weather History & Observations

Time (AKST) Temp. Windchill Dew Point Humidity Pressure Visibility Wind Dir Wind Speed Gust Speed Precip Events Conditions
12:16 AM 15.8 °F -1.1 °F 14.0 °F 93% 29.67 in 10.0 mi NE 19.6 mph - N/A   Overcast
12:36 AM 17.6 °F 0.1 °F 15.8 °F 93% 29.66 in 10.0 mi NE 23.0 mph - 0.02 in   Overcast
12:56 AM 17.6 °F 0.1 °F 15.8 °F 93% 29.66 in 5.0 mi NE 23.0 mph - 0.02 in   Overcast
1:16 AM 17.6 °F 0.5 °F 15.8 °F 93% 29.66 in 2.5 mi NE 21.9 mph - N/A   Overcast
1:36 AM 17.6 °F 1.7 °F 15.8 °F 93% 29.67 in 5.0 mi NE 18.4 mph - 0.02 in   Overcast
1:56 AM 17.6 °F 0.5 °F 15.8 °F 93% 29.67 in 4.0 mi NE 21.9 mph - 0.05 in   Overcast
2:16 AM 17.6 °F 0.5 °F 15.8 °F 93% 29.67 in 4.0 mi NE 21.9 mph 27.6 mph N/A   Overcast
2:36 AM 17.6 °F 0.1 °F 15.8 °F 93% 29.67 in 7.0 mi NE 23.0 mph 27.6 mph N/A   Overcast
2:56 AM 17.6 °F 0.9 °F 15.8 °F 93% 29.67 in 10.0 mi NE 20.7 mph - N/A   Overcast
3:16 AM 17.6 °F -1.0 °F 15.8 °F 93% 29.67 in 10.0 mi NE 26.5 mph - 0.01 in   Overcast
3:36 AM 17.6 °F 1.3 °F 15.8 °F 93% 29.69 in 10.0 mi NE 19.6 mph 29.9 mph 0.01 in   Overcast
3:56 AM 17.6 °F 0.5 °F 15.8 °F 93% 29.70 in 10.0 mi NE 21.9 mph - 0.01 in   Overcast
4:16 AM 17.6 °F 0.9 °F 15.8 °F 93% 29.71 in 10.0 mi NE 20.7 mph - N/A   Overcast
4:36 AM 17.6 °F 0.9 °F 15.8 °F 93% 29.71 in 10.0 mi NE 20.7 mph 24.2 mph N/A   Overcast
4:56 AM 17.6 °F 0.9 °F 14.0 °F 86% 29.72 in 10.0 mi NNE 20.7 mph - 0.03 in   Overcast
5:16 AM 17.6 °F 1.3 °F 15.8 °F 93% 29.74 in 10.0 mi NE 19.6 mph - 0.02 in   Overcast
5:36 AM 17.6 °F 0.5 °F 15.8 °F 93% 29.74 in 10.0 mi NNE 21.9 mph - 0.02 in   Overcast
5:56 AM 17.6 °F 0.5 °F 15.8 °F 93% 29.75 in 10.0 mi NNE 21.9 mph 26.5 mph 0.02 in   Overcast
6:16 AM 17.6 °F 1.3 °F 15.8 °F 93% 29.76 in 10.0 mi NE 19.6 mph - N/A   Overcast
6:36 AM 17.6 °F 0.5 °F 15.8 °F 93% 29.75 in 10.0 mi NNE 21.9 mph - 0.01 in   Overcast
6:56 AM 17.6 °F 0.1 °F 14.0 °F 86% 29.76 in 10.0 mi NE 23.0 mph - 0.01 in   Overcast
7:16 AM 17.6 °F 1.7 °F 14.0 °F 86% 29.77 in 10.0 mi NE 18.4 mph - 0.01 in   Overcast
7:36 AM 17.6 °F 0.1 °F 14.0 °F 86% 29.77 in 10.0 mi NE 23.0 mph - 0.04 in   Overcast
7:56 AM 17.6 °F 2.2 °F 14.0 °F 86% 29.78 in 10.0 mi NE 17.3 mph - 0.04 in   Overcast
8:16 AM 17.6 °F 0.5 °F 14.0 °F 86% 29.78 in 10.0 mi NE 21.9 mph - 0.04 in   Overcast
8:36 AM 17.6 °F -0.6 °F 14.0 °F 86% 29.77 in 10.0 mi NE 25.3 mph 28.8 mph 0.31 in   Overcast
8:56 AM 17.6 °F 0.1 °F 12.2 °F 79% 29.78 in 10.0 mi NE 23.0 mph - 0.37 in   Overcast
9:16 AM 15.8 °F -1.5 °F 12.2 °F 86% 29.80 in 10.0 mi NE 20.7 mph - N/A   Overcast
9:36 AM 15.8 °F -0.2 °F 12.2 °F 86% 29.81 in 10.0 mi NE 17.3 mph - N/A   Overcast
9:56 AM 15.8 °F 0.3 °F 12.2 °F 86% 29.82 in 10.0 mi NE 16.1 mph - 0.05 in   Overcast
10:16 AM 15.8 °F -1.1 °F 12.2 °F 86% 29.83 in 10.0 mi NE 19.6 mph - 0.04 in   Overcast
10:36 AM 15.8 °F -0.6 °F 12.2 °F 86% 29.83 in 10.0 mi NE 18.4 mph 21.9 mph 0.05 in   Overcast
10:56 AM 15.8 °F -0.2 °F 12.2 °F 86% 29.84 in 10.0 mi NE 17.3 mph - 0.10 in   Overcast
11:16 AM 15.8 °F -0.2 °F 12.2 °F 86% 29.85 in 10.0 mi NE 17.3 mph - 0.02 in   Overcast
11:36 AM 15.8 °F -0.2 °F 12.2 °F 86% 29.86 in 10.0 mi NE 17.3 mph - 0.05 in   Overcast
11:56 AM 15.8 °F 0.9 °F 12.2 °F 86% 29.88 in 10.0 mi NE 15.0 mph - 0.08 in   Overcast
12:16 PM 15.8 °F -1.1 °F 12.2 °F 86% 29.88 in 10.0 mi ENE 19.6 mph - 0.03 in   Overcast
12:36 PM 15.8 °F 0.9 °F 12.2 °F 86% 29.90 in 10.0 mi ENE 15.0 mph - 0.08 in   Overcast
12:56 PM 15.8 °F -0.2 °F 12.2 °F 86% 29.90 in 10.0 mi ENE 17.3 mph - 0.11 in   Overcast
1:16 PM 15.8 °F 1.4 °F 12.2 °F 86% 29.92 in 10.0 mi ENE 13.8 mph - 0.01 in   Overcast
1:36 PM 15.8 °F 0.9 °F 12.2 °F 86% 29.92 in 10.0 mi ENE 15.0 mph - 0.03 in   Overcast
1:56 PM 15.8 °F 2.1 °F 12.2 °F 86% 29.94 in 10.0 mi ENE 12.7 mph - 0.06 in   Overcast
2:16 PM 15.8 °F 0.9 °F 12.2 °F 86% 29.94 in 10.0 mi ENE 15.0 mph - 0.02 in   Overcast
2:36 PM 15.8 °F 0.9 °F 12.2 °F 86% 29.94 in 10.0 mi NE 15.0 mph - 0.05 in   Overcast
2:56 PM 15.8 °F -1.1 °F 12.2 °F 86% 29.93 in 10.0 mi NE 19.6 mph - 0.08 in   Overcast
3:16 PM 15.8 °F -1.1 °F 12.2 °F 86% 29.93 in 10.0 mi ENE 19.6 mph - 0.05 in   Overcast
3:36 PM 15.8 °F 0.9 °F 12.2 °F 86% 29.95 in 10.0 mi ENE 15.0 mph - 0.06 in   Overcast
3:56 PM 15.8 °F 0.9 °F 12.2 °F 86% 29.95 in 10.0 mi ENE 15.0 mph - 0.06 in   Overcast
4:16 PM 15.8 °F 0.3 °F 12.2 °F 86% 29.96 in 10.0 mi ENE 16.1 mph - 0.05 in   Overcast
4:36 PM 15.8 °F 0.3 °F 12.2 °F 86% 29.97 in 10.0 mi ENE 16.1 mph - 0.12 in   Overcast
4:56 PM 15.8 °F -0.6 °F 12.2 °F 86% 29.97 in 10.0 mi ENE 18.4 mph - 0.13 in   Overcast
5:16 PM 15.8 °F 0.9 °F 12.2 °F 86% 29.99 in 9.0 mi ENE 15.0 mph - 0.01 in   Overcast
5:36 PM 15.8 °F -0.6 °F 12.2 °F 86% 29.98 in 5.0 mi ENE 18.4 mph - 0.05 in   Overcast
5:56 PM 15.8 °F -0.6 °F 12.2 °F 86% 29.98 in 5.0 mi NE 18.4 mph - 0.12 in   Overcast
6:16 PM 15.8 °F -1.1 °F 12.2 °F 86% 29.98 in 5.0 mi NE 19.6 mph - 0.03 in   Overcast
6:36 PM 14.0 °F -3.9 °F 12.2 °F 93% 29.98 in 10.0 mi NE 20.7 mph - 0.04 in   Overcast
6:56 PM 14.0 °F -4.3 °F 10.4 °F 86% 29.98 in 7.0 mi NE 21.9 mph - 0.11 in   Overcast
7:16 PM 14.0 °F -3.4 °F 12.2 °F 93% 29.99 in 8.0 mi NE 19.6 mph - N/A   Overcast
7:36 PM 14.0 °F -2.5 °F 12.2 °F 93% 30.00 in 7.0 mi NE 17.3 mph - N/A   Overcast
7:56 PM 14.0 °F -2.0 °F 12.2 °F 93% 30.00 in 5.0 mi NNE 16.1 mph - 0.03 in   Overcast
8:16 PM 14.0 °F -0.8 °F 12.2 °F 93% 30.01 in 9.0 mi NE 13.8 mph - N/A   Overcast
8:36 PM 14.0 °F -3.0 °F 10.4 °F 86% 30.01 in 4.0 mi NE 18.4 mph - 0.01 in   Overcast
8:56 PM 14.0 °F -2.5 °F 12.2 °F 93% 30.02 in 10.0 mi NNE 17.3 mph - 0.13 in   Overcast
9:16 PM 14.0 °F 0.5 °F 12.2 °F 93% 30.03 in 10.0 mi NE 11.5 mph - 0.05 in   Overcast
9:36 PM 14.0 °F 0.5 °F 12.2 °F 93% 30.04 in 10.0 mi ENE 11.5 mph 20.7 mph 0.14 in   Overcast
9:56 PM 14.0 °F 0.5 °F 12.2 °F 93% 30.04 in 10.0 mi NE 11.5 mph - 0.17 in   Overcast
10:16 PM 14.0 °F -0.2 °F 12.2 °F 93% 30.04 in 10.0 mi ENE 12.7 mph 18.4 mph 0.11 in   Overcast
10:36 PM 14.0 °F -1.4 °F 12.2 °F 93% 30.05 in 10.0 mi NNE 15.0 mph - 0.17 in   Overcast
10:56 PM 14.0 °F -0.8 °F 10.4 °F 86% 30.05 in 10.0 mi NE 13.8 mph - 0.19 in   Overcast
11:16 PM 14.0 °F -1.4 °F 10.4 °F 86% 30.07 in 7.0 mi NNE 15.0 mph - 0.03 in   Overcast
11:36 PM 14.0 °F -3.0 °F 12.2 °F 93% 30.06 in 10.0 mi NNE 18.4 mph - 0.22 in   Overcast
11:56 PM 14.0 °F -1.4 °F 12.2 °F 93% 30.06 in 9.0 mi North 15.0 mph - 0.35 in   Overcast